Weather observations for the past three days for
Macon County Airport
Imperial (Metric)
Date Time (edt) Wind (mph) Vis. (mi.) Weather Sky Cond. Temperature (ºF) Relative Humidity Wind Chill (°F) Heat Index (°F) Pressure Precipitation (in)
Air Dwpt 6 hour altimeter (in) sea level (mb) 1 hr 3 hr 6 hr
Max. Min.
21 13:25 E 5 10.00 Partly Cloudy SCT024 SCT035 SCT120 80.4 70 71% 84 30.16 0.0
21 13:05 E 3 10.00 Partly Cloudy SCT022 SCT120 80.2 70.7 73% 84 30.16 0.0
21 12:45 SE 5 10.00 Partly Cloudy SCT022 81 70.7 71% 85 30.17 0.0
21 12:25 E 5 10.00 Partly Cloudy SCT025 79 69.8 74% 82 30.17 0.0
21 12:05 E 3 10.00 Mostly Cloudy SCT017 BKN025 77.5 70.3 79% 79 30.18 0.0
21 11:45 SE 5 10.00 Partly Cloudy SCT017 SCT027 77.2 69.8 78% 79 30.18 0.0
21 11:25 Calm 10.00 Fair CLR 76.5 71.1 83% 77 30.18 0.0
21 11:05 Calm 10.00 Partly Cloudy SCT026 SCT046 SCT075 74.3 70.3 88% 30.18 0.0
21 10:45 Calm 10.00 Mostly Cloudy SCT013 SCT026 BKN045 74.8 70 85% 30.17 0.0
21 10:25 Calm 10.00 Mostly Cloudy BKN022 BKN045 BKN050 75.4 70.3 84% 76 30.18 0.0
21 10:05 Calm 10.00 Overcast SCT010 BKN020 OVC041 73.6 69.4 87% 30.18 0.0
21 09:45 Calm 10.00 Overcast BKN010 OVC041 72.7 69.1 89% 30.18 0.0
21 09:25 Calm 10.00 Light Rain OVC008 71.8 68.9 91% 30.17 0.0
21 09:05 Calm 10.00 Overcast BKN006 OVC039 71.2 69.1 93% 30.18 0.0
21 08:45 Calm 10.00 Overcast BKN006 BKN039 OVC070 70 68.4 95% 30.18 0.0
21 08:25 Calm 10.00 Overcast BKN004 OVC010 68.7 67.8 97% 30.18 0.0
21 08:05 Calm 10.00 Overcast BKN004 OVC010 68.4 67.5 97% 30.18 0.0
21 07:45 Calm 10.00 Overcast SCT004 BKN010 OVC036 68 67.5 98% 30.18 0.0
21 07:25 Calm 3.00 Light Rain BKN015 BKN030 OVC050 67.8 67.1 98% 30.17 0.0
21 07:05 Calm 2.50 Light Rain OVC015 67.6 67.1 98% 30.17 0.0
21 06:45 Calm 7.00 Light Rain SCT003 BKN015 OVC085 67.5 67.1 99% 30.18 0.0
21 06:25 Calm 10.00 Overcast OVC015 67.5 67.1 99% 30.17 0.0
21 06:05 Calm 10.00 Overcast BKN015 OVC020 67.3 66.7 98% 30.17 0.0
21 05:45 Calm 10.00 Overcast SCT003 BKN015 OVC020 67.3 66.6 98% 30.17 0.0
21 05:25 Calm 10.00 Overcast SCT003 OVC017 67.3 66.7 98% 30.16 0.0
21 05:05 Calm 10.00 Overcast BKN017 OVC060 67.1 66.4 98% 30.16 0.0
21 04:45 Calm 10.00 Overcast SCT003 BKN017 OVC090 66.9 66.4 98% 30.16 0.0
21 04:25 W 3 10.00 Overcast BKN003 OVC015 66.7 66.2 98% 30.16 0.0
21 04:05 Calm 5.00 Fog/Mist BKN003 OVC015 66.7 66.2 98% 30.17 0.0
21 03:45 Calm 7.00 Overcast BKN003 OVC013 66.6 66.2 99% 30.17 0.0
21 03:25 Calm 10.00 Overcast BKN005 OVC090 66.2 65.7 98% 30.17 0.0
21 03:05 Calm 10.00 Overcast OVC003 66.2 65.7 98% 30.18 0.0
21 02:45 Calm 7.00 Mostly Cloudy BKN003 66 65.5 98% 30.18 0.0
21 02:25 Calm 7.00 Mostly Cloudy BKN003 66.2 65.7 98% 30.19 0.0
21 02:05 Calm 5.00 Fog/Mist SCT003 SCT048 66.2 65.7 98% 30.18 0.0
21 01:45 Calm 10.00 Mostly Cloudy BKN003 BKN048 66.7 66.2 98% 30.18 0.0
21 01:25 Calm 10.00 Partly Cloudy SCT003 SCT048 66.7 66.2 98% 30.19 0.0
21 01:05 Calm 10.00 Fair CLR 66.7 66.4 99% 30.18 0.0
21 00:45 Calm 10.00 Partly Cloudy SCT038 67.1 66.4 98% 30.18 0.0
21 00:25 Calm 10.00 Mostly Cloudy BKN036 BKN043 67.3 66.7 98% 30.18 0.0
21 00:05 Calm 10.00 Mostly Cloudy BKN032 BKN043 67.8 67.1 98% 30.19 0.0
20 23:45 Calm 10.00 Partly Cloudy SCT034 67.6 66.9 98% 30.19 0.0
20 23:25 Calm 10.00 Fair CLR 68 67.3 98% 30.19 0.0
20 23:05 Calm 10.00 Fair CLR 68.9 68 97% 30.19 0.0
20 22:45 Calm 10.00 Fair CLR 69.3 68.4 97% 30.19 0.0
20 22:25 Calm 10.00 Fair CLR 70.2 69.1 96% 30.19 0.0
20 22:05 Calm 10.00 Fair CLR 70.2 68.9 96% 30.19 0.0
20 21:45 Calm 10.00 Partly Cloudy SCT050 70.7 69.1 95% 30.18 0.0
20 21:25 Calm 10.00 Mostly Cloudy BKN050 72.5 69.8 91% 30.17 0.0
20 21:05 Calm 10.00 Partly Cloudy SCT050 72.1 69.6 92% 30.16 0.0
20 20:45 Calm 10.00 Partly Cloudy SCT046 SCT085 74.3 69.8 86% 30.16 0.0
20 20:25 Calm 10.00 Partly Cloudy SCT046 75 70.2 85% 75 30.16 0.0
20 20:05 SE 3 10.00 Fair CLR 77.4 69.6 77% 79 30.16 0.0
20 19:45 Calm 10.00 Partly Cloudy SCT040 SCT080 79 69.3 72% 82 30.16 0.0
20 19:25 Calm 10.00 Partly Cloudy SCT090 80.1 69.4 70% 83 30.15 0.0
20 19:05 Calm 10.00 Partly Cloudy SCT070 SCT090 79.7 69.4 71% 83 30.14 0.0
20 18:45 Calm 10.00 Mostly Cloudy SCT070 BKN080 80.1 66.6 64% 82 30.14 0.0
20 18:25 Calm 10.00 Mostly Cloudy BKN080 80.4 67.1 64% 83 30.14 0.0
20 18:05 NW 3 10.00 Partly Cloudy SCT070 SCT080 80.8 65.8 61% 83 30.14 0.0
20 17:45 W 6 10.00 Mostly Cloudy BKN070 BKN080 79.7 67.6 67% 82 30.15 0.0
20 17:25 W 6 10.00 Overcast SCT050 OVC070 79.7 68.9 70% 82 30.15 0.0
20 17:05 W 5 10.00 Mostly Cloudy SCT050 SCT070 BKN080 79.7 68.5 69% 82 30.16 0.0
20 16:45 NW 3 10.00 Mostly Cloudy SCT050 SCT060 BKN070 81 69.4 68% 84 30.15 0.0
20 16:25 NW 3 10.00 Light Rain BKN070 BKN080 79.2 69.3 72% 82 30.16 0.0
20 16:05 Calm 10.00 Partly Cloudy SCT080 SCT090 81 66.9 62% 83 30.16 0.0
20 15:45 W 3 10.00 Fair CLR 81.5 66.9 61% 84 30.16 0.0
20 15:25 NW 3 10.00 Fair CLR 81.3 67.6 63% 84 30.16 0.0
20 15:05 N 6 10.00 Fair CLR 81.3 68.9 66% 84 30.16 0.0
20 14:45 Calm 10.00 Fair CLR 80.6 67.6 65% 83 30.17 0.0
20 14:25 N 7 10.00 Partly Cloudy SCT080 SCT090 79.9 67.8 67% 82 30.17 0.0
20 14:05 N 3 10.00 Mostly Cloudy SCT070 SCT080 BKN090 78.4 67.5 69% 81 30.18 0.0
20 13:45 N 5 10.00 Overcast SCT028 SCT033 OVC080 78.3 66.9 68% 80 30.19 0.0
20 13:25 NE 5 10.00 Overcast SCT027 BKN034 OVC050 77.9 68 72% 80 30.2 0.0
20 13:05 Calm 10.00 Mostly Cloudy SCT023 SCT044 BKN050 77.4 67.5 72% 79 30.21 0.0
20 12:45 E 5 10.00 Mostly Cloudy SCT023 BKN047 BKN050 77.7 67.5 71% 80 30.22 0.0
20 12:25 Calm 10.00 Partly Cloudy SCT090 76.1 67.3 74% 78 30.23 0.0
20 12:05 NE 3 10.00 Partly Cloudy SCT100 75 68.9 81% 75 30.23 0.0
20 11:45 Calm 10.00 Mostly Cloudy SCT075 BKN085 BKN110 73.6 68.2 83% 30.23 0.0
20 11:25 Calm 10.00 Overcast OVC085 71.6 68.5 90% 30.23 0.0
20 11:05 Calm 10.00 Overcast BKN070 OVC085 70.9 67.8 90% 30.23 0.0
20 10:45 Calm 10.00 Overcast SCT035 OVC070 70.9 67.5 89% 30.23 0.0
20 10:25 Calm 10.00 Overcast SCT007 BKN037 OVC080 70.7 67.1 88% 30.23 0.0
20 10:05 Calm 10.00 Overcast BKN013 OVC037 70 67.5 92% 30.23 0.0
20 09:45 Calm 7.00 Overcast OVC010 68.9 67.3 95% 30.23 0.0
20 09:25 Calm 10.00 Overcast OVC010 68.9 67.8 96% 30.23 0.0
20 09:05 Calm 10.00 Overcast SCT006 OVC010 68.5 67.6 97% 30.23 0.0
20 08:45 Calm 10.00 Overcast BKN006 OVC012 68.4 67.5 97% 30.22 0.0
20 08:25 Calm 7.00 Drizzle SCT006 OVC012 68 67.1 97% 30.22 0.0
20 08:05 Calm 10.00 Drizzle OVC012 67.5 67.1 99% 30.21 0.0
20 07:45 Calm 7.00 Drizzle SCT008 BKN014 OVC090 67.5 67.1 99% 30.2 0.0
20 07:25 Calm 10.00 Light Drizzle BKN006 OVC014 67.1 66.4 98% 30.2 0.0
20 07:05 Calm 5.00 Drizzle OVC006 67.1 66.4 98% 30.2 0.0
20 06:45 Calm 7.00 Drizzle BKN006 BKN012 BKN035 66.7 66.2 98% 30.2 0.0
20 06:25 Calm 7.00 Drizzle SCT004 SCT009 BKN035 67.1 66.4 98% 30.19 0.0
20 06:05 Calm 10.00 Light Drizzle SCT008 SCT018 BKN050 67.1 66.6 98% 30.19 0.0
20 05:45 Calm 10.00 Light Drizzle BKN005 OVC010 67.3 66.7 98% 30.19 0.0
20 05:25 Calm 7.00 Light Rain OVC005 67.3 66.7 98% 30.18 0.0
20 05:05 Calm 5.00 Light Drizzle BKN003 OVC019 67.5 66.9 98% 30.17 0.0
20 04:45 Calm 5.00 Fog/Mist OVC003 67.5 67.1 99% 30.17 0.0
20 04:25 Calm 5.00 Light Drizzle SCT003 BKN120 67.5 67.1 99% 30.16 0.0
20 04:05 Calm 10.00 Partly Cloudy SCT003 SCT011 SCT027 67.6 67.1 98% 30.16 0.0
20 03:45 Calm 7.00 Light Drizzle SCT003 SCT013 BKN026 68 67.3 98% 30.17 0.0
20 03:25 Calm 10.00 Overcast SCT003 BKN007 OVC013 68 67.3 98% 30.17 0.0
20 03:05 Calm 10.00 Overcast OVC007 68.2 67.6 98% 30.17 0.0
20 02:45 Calm 10.00 Overcast OVC005 68.4 67.8 98% 30.18 0.0
20 02:25 Calm 7.00 Overcast OVC003 68.9 68.2 98% 30.18 0.0
20 02:05 Calm 7.00 Overcast OVC003 68.7 68 98% 30.19 0.0
20 01:45 Calm 10.00 Overcast BKN005 BKN032 OVC080 68.9 68.2 98% 30.19 0.0
20 01:25 Calm 10.00 Overcast BKN003 BKN007 OVC032 68.7 68.2 98% 30.2 0.0
20 01:05 Calm 5.00 Fog/Mist OVC003 68.4 68 99% 30.21 0.0
20 00:45 Calm 7.00 Overcast OVC003 68.7 68.2 98% 30.21 0.0
20 00:25 Calm 5.00 Light Drizzle OVC003 68.5 68 98% 30.2 0.0
20 00:05 Calm 10.00 Light Rain OVC003 68.5 68 98% 30.2 0.0
19 23:45 Calm 10.00 Overcast BKN003 BKN016 OVC027 68.5 68 98% 30.2 0.0
19 23:25 Calm 10.00 Overcast SCT017 BKN021 OVC048 68.7 68 98% 30.2 0.0
19 23:05 Calm 10.00 Overcast SCT028 SCT035 OVC046 68.9 68.2 98% 30.19 0.0
19 22:45 Calm 7.00 Drizzle BKN044 OVC050 68.7 68.2 98% 30.2 0.0
19 22:25 Calm 7.00 Drizzle SCT044 BKN050 OVC120 68.7 68 98% 30.2 0.0
19 22:05 Calm 7.00 Light Rain SCT003 BKN018 OVC065 68.9 68.2 98% 30.19 0.0
19 21:45 Calm 10.00 Light Drizzle BKN003 BKN020 OVC042 68.9 68.4 98% 30.19 0.0
19 21:25 Calm 10.00 Partly Cloudy SCT020 SCT044 SCT050 68.9 68.2 98% 30.19 0.0
19 21:05 Calm 10.00 Light Rain SCT020 SCT044 SCT050 69.1 68.4 98% 30.18 0.0
19 20:45 Calm 10.00 Partly Cloudy SCT020 SCT040 69.3 68.4 97% 30.18 0.0
19 20:25 Calm 10.00 Light Rain SCT040 SCT050 69.4 68.5 97% 30.18 0.0
19 20:05 Calm 10.00 Light Rain SCT050 BKN065 BKN090 70.7 68.7 93% 30.17 0.0
19 19:45 Calm 10.00 Light Rain SCT055 BKN065 BKN090 71.2 68.7 92% 30.17 0.0
19 19:25 Calm 10.00 Partly Cloudy SCT060 SCT075 72 68 87% 30.16 0.0
19 19:05 Calm 10.00 Fair CLR 72.5 68.2 86% 30.16 0.0
19 18:45 W 5 10.00 Fair CLR 72.7 68.4 86% 30.15 0.0
19 18:25 W 5 10.00 Fair CLR 73.2 68.7 86% 30.16 0.0
19 18:05 N 3 10.00 Light Drizzle SCT043 SCT055 SCT110 73.6 70.9 91% 30.16 0.0
19 17:45 Calm 10.00 Drizzle SCT033 SCT040 BKN047 74.3 70 86% 30.16 0.0
19 17:25 Calm 10.00 Light Drizzle SCT035 BKN047 OVC080 74.7 70.3 86% 30.16 0.0
19 17:05 Calm 10.00 Rain SCT044 SCT050 BKN065 74.7 69.6 84% 30.16 0.0
19 16:45 Calm 10.00 Light Rain BKN110 75.4 68.7 80% 76 30.16 0.0
19 16:25 Calm 10.00 Mostly Cloudy BKN110 75.6 68.2 78% 77 30.16 0.0
19 16:05 Calm 10.00 Mostly Cloudy SCT090 BKN120 75.9 66.7 73% 77 30.16 0.0
19 15:45 Calm 10.00 Partly Cloudy SCT090 SCT110 76.6 67.1 72% 78 30.16 0.0
19 15:25 Calm 10.00 Mostly Cloudy SCT080 BKN110 76.5 68.9 78% 78 30.16 0.0
19 15:05 Calm 10.00 Overcast SCT032 BKN070 OVC080 74.5 68.2 81% 30.17 0.0
19 14:45 SW 3 10.00 Overcast SCT009 BKN031 OVC110 72.7 69.1 89% 30.18 0.0
19 14:25 Calm 10.00 Overcast SCT009 BKN085 OVC110 72.5 67.3 84% 30.19 0.0
19 14:05 W 5 10.00 Overcast SCT034 BKN080 OVC110 71.2 68.7 92% 30.19 0.0
19 13:45 NW 8 5.00 Light Rain SCT036 BKN060 OVC085 69.8 68 94% 30.19 0.0
19 13:25 W 18 G 22 7.00 Light Rain SCT036 BKN090 OVC110 74.7 69.4 84% 30.19 0.0
19 13:05 Calm 10.00 Mostly Cloudy SCT027 BKN032 BKN090 80.2 68.2 67% 83 30.18 0.0
19 12:45 Calm 10.00 Partly Cloudy SCT100 SCT120 82.2 69.1 65% 86 30.18 0.0
19 12:25 Calm 10.00 Partly Cloudy SCT110 79.9 68.9 69% 83 30.18 0.0
19 12:05 Calm 10.00 Mostly Cloudy BKN110 77.5 68.2 73% 79 30.19 0.0
19 11:45 Calm 10.00 Mostly Cloudy BKN100 77 67.5 73% 79 30.19 0.0
19 11:25 Calm 10.00 Fair CLR 76.1 69.3 79% 77 30.19 0.0
19 11:05 Calm 10.00 Partly Cloudy SCT011 74.7 67.8 79% 30.19 0.0
19 10:45 Calm 10.00 Mostly Cloudy BKN009 73.2 68.2 84% 30.21 0.0
19 10:25 Calm 10.00 Overcast OVC009 71.1 67.1 87% 30.21 0.0
19 10:05 Calm 10.00 Overcast OVC009 70.3 67.1 90% 30.21 0.0
19 09:45 Calm 10.00 Overcast OVC007 70 67.3 91% 30.21 0.0
19 09:25 Calm 10.00 Overcast OVC007 69.1 66.9 93% 30.21 0.0
19 09:05 Calm 10.00 Overcast OVC007 68.9 66.9 93% 30.2 0.0
19 08:45 Calm 10.00 Overcast OVC007 68.5 66.6 93% 30.2 0.0
19 08:25 Calm 10.00 Overcast OVC005 68 66.7 96% 30.19 0.0
19 08:05 Calm 10.00 Overcast OVC005 67.8 66.6 96% 30.19 0.0
19 07:45 Calm 10.00 Overcast OVC005 67.1 66.2 97% 30.18 0.0
19 07:25 Calm 10.00 Overcast OVC005 66.7 66.2 98% 30.17 0.0
19 07:05 Calm 10.00 Overcast OVC005 66.4 65.7 98% 30.16 0.0
19 06:45 Calm 10.00 Overcast OVC005 66.2 65.7 98% 30.16 0.0
19 06:25 Calm 10.00 Overcast OVC005 66.2 65.5 98% 30.16 0.0
19 06:05 Calm 10.00 Overcast OVC005 66 65.3 98% 30.15 0.0
19 05:45 Calm 10.00 Overcast OVC003 65.7 65.3 99% 30.15 0.0
19 05:25 Calm 5.00 Fog/Mist OVC003 66.2 65.5 98% 30.15 0.0
19 05:05 Calm 7.00 Overcast BKN003 OVC008 65.3 64.8 98% 30.14 0.0
19 04:45 Calm 4.00 Fog/Mist OVC003 65.5 64.9 98% 30.15 0.0
19 04:25 Calm 4.00 Fog/Mist OVC003 65.8 65.3 98% 30.14 0.0
19 04:05 Calm 10.00 Overcast OVC003 65.8 65.3 98% 30.14 0.0
19 03:45 Calm 7.00 Mostly Cloudy BKN003 66 65.3 98% 30.14 0.0
19 03:25 Calm 5.00 Fog/Mist SCT003 SCT090 66.2 65.7 98% 30.14 0.0
19 03:05 Calm 7.00 Partly Cloudy SCT003 SCT090 66.7 66.2 98% 30.14 0.0
19 02:45 Calm 10.00 Mostly Cloudy SCT005 BKN090 67.3 66.6 98% 30.14 0.0
19 02:25 Calm 10.00 Overcast BKN005 OVC090 67.5 66.6 97% 30.15 0.0
19 02:05 Calm 7.00 Drizzle OVC005 68 67.1 97% 30.15 0.0
19 01:45 Calm 10.00 Rain BKN005 OVC080 68 67.3 98% 30.16 0.0
19 01:25 Calm 10.00 Overcast OVC080 68 67.1 97% 30.16 0.0
19 01:05 Calm 10.00 Light Rain OVC080 68 67.1 97% 30.16 0.0
19 00:45 Calm 10.00 Overcast OVC080 68 67.1 97% 30.16 0.0
19 00:25 Calm 10.00 Overcast OVC080 68 67.1 97% 30.16 0.0
19 00:05 Calm 10.00 Overcast OVC080 68 66.9 96% 30.15 0.0
18 23:45 Calm 10.00 Overcast OVC090 68 67.1 97% 30.15 0.0
18 23:25 Calm 10.00 Overcast OVC090 68.4 67.3 96% 30.16 0.0
18 23:05 Calm 10.00 Overcast OVC100 68.5 67.5 96% 30.16 0.0
18 22:45 Calm 10.00 Overcast OVC100 68 67.1 97% 30.15 0.0
18 22:25 Calm 10.00 Mostly Cloudy BKN100 67.8 67.1 98% 30.15 0.0
18 22:05 Calm 10.00 Fair CLR 68.2 67.3 97% 30.14 0.0
18 21:45 Calm 10.00 Fair CLR 68.5 67.6 97% 30.13 0.0
18 21:25 Calm 10.00 Fair CLR 68.9 68 97% 30.13 0.0
18 21:05 Calm 10.00 Fair CLR 70 69.1 97% 30.12 0.0
18 20:45 Calm 10.00 Fair CLR 71.6 70 95% 30.11 0.0
18 20:25 Calm 10.00 Fair CLR 72.9 70 91% 30.1 0.0
18 20:05 Calm 10.00 Partly Cloudy SCT120 73.4 70 89% 30.09 0.0
18 19:45 Calm 10.00 Mostly Cloudy SCT100 BKN120 73.4 69.3 87% 30.09 0.0
18 19:25 NE 3 10.00 Mostly Cloudy BKN110 73.9 70.2 88% 30.09 0.0
18 19:05 Calm 10.00 Partly Cloudy SCT120 74.7 70.2 86% 30.09 0.0
18 18:45 Calm 10.00 Fair CLR 74.5 67.5 79% 30.09 0.0
18 18:25 NW 6 10.00 Fair CLR 74.7 68.5 81% 30.09 0.0
18 18:05 Calm 10.00 Light Drizzle SCT040 SCT060 SCT070 73.4 70.5 91% 30.09 0.0
18 17:45 E 5 10.00 Light Drizzle SCT031 BKN040 OVC060 71.1 69.1 94% 30.09 0.0
18 17:25 Calm 5.00 Rain BKN036 OVC043 72 69.8 93% 30.09 0.0
18 17:05 N 3 10.00 Light Rain SCT025 BKN039 OVC048 72.1 68.2 87% 30.09 0.0
18 16:45 W 5 10.00 Light Rain BKN041 OVC050 79.5 69.3 71% 82 30.07 0.0
18 16:25 Calm 10.00 Partly Cloudy SCT047 SCT055 80.6 68.5 67% 83 30.07 0.0
18 16:05 N 5 10.00 Fair CLR 80.8 66.9 63% 83 30.06 0.0
18 15:45 Calm 10.00 Partly Cloudy SCT046 SCT060 SCT085 80.4 70.2 71% 84 30.07 0.0
18 15:25 Calm 10.00 Light Rain SCT049 SCT060 BKN110 79.5 70.7 75% 83 30.06 0.0
18 15:05 W 5 10.00 Partly Cloudy SCT070 SCT110 80.2 68.9 68% 83 30.07 0.0
18 14:45 SW 5 10.00 Mostly Cloudy BKN110 79.9 68.4 68% 83 30.08 0.0
18 14:25 W 5 10.00 Overcast SCT075 SCT090 OVC110 80.8 69.6 69% 84 30.09 0.0
18 14:05 SW 3 10.00 Overcast SCT029 OVC110 78.3 70.2 76% 81 30.09 0.0
18 13:45 W 3 10.00 Partly Cloudy SCT120 79.9 69.8 71% 83 30.09 0.0
Date Time (edt) Wind (mph) Vis. (mi.) Weather Sky Cond. Air Dwpt Max. Min. Relative Humidity Wind Chill (°F) Heat Index (°F) altimeter (in) sea level (mb) 1 hr 3 hr 6 hr
6 hour
Temperature (ºF) Pressure Precipitation (in)